Quantico, VA

4:24 PM EDT on May 24, 2017 (GMT -0400)
Quantico Marine Corps Air Facility

Weather History for KNYG - November, 2011

Change the Weather History Date:

Sunday, November 27, 2011

  Actual Average Record
Temperature  
Mean Temperature 58 °F -  
Max Temperature 73 °F 51 °F 81 °F (2015)
Min Temperature 42 °F 34 °F 25 °F (2008)
Degree Days  
Heating Degree Days 8    
Growing Degree Days 8 (Base 50)    
Moisture  
Dew Point 45 °F    
Average Humidity 70    
Maximum Humidity 82    
Minimum Humidity 39    
Precipitation  
Precipitation 0.00 in - - ()
Sea Level Pressure  
Sea Level Pressure 30.13 in    
Wind  
Wind Speed 6 mph (SW)    
Max Wind Speed 15 mph    
Max Gust Speed 23 mph    
Visibility 10 miles    
Events      
Averages and records for this station are not official NWS values.
T = Trace of Precipitation, MM = Missing Value Source: NWS Daily Summary

Daily Weather History Graph

Daily Weather History Graph

Search for Another Location

Airport or City:

Trip Planner

Search our weather history database for the weather conditions in past years. The results will help you decide how hot, cold, wet, or windy it might be!

Date:

Astronomy

Nov. 27, 2011 Rise Set
Actual Time 7:03 AM EST 4:49 PM EST
Civil Twilight 6:34 AM EST 5:18 PM EST
Nautical Twilight 6:01 AM EST 5:51 PM EST
Astronomical Twilight 5:30 AM EST 6:23 PM EST
Moon 9:26 AM EST (11/27) 7:26 PM EST (11/27)
Length of Visible Light 10h 44m
Length of Day
9h 46m
Waxing Crescent, 8% of the Moon is Illuminated
Nov 27
Waxing Crescent
Dec 2
First Quarter
Dec 10
Full
Dec 17
Last Quarter
Dec 24
New

Hourly Weather History & Observations

Time (EST) Temp. Windchill Dew Point Humidity Pressure Visibility Wind Dir Wind Speed Gust Speed Precip Events Conditions
12:56 AM 43.0 °F 40.3 °F 37.9 °F 82% 30.19 in 10.0 mi WNW 4.6 mph - N/A   Clear
1:56 AM 43.0 °F - 37.9 °F 82% 30.18 in 10.0 mi Calm Calm - N/A   Clear
2:56 AM 42.1 °F - 37.0 °F 82% 30.18 in 10.0 mi Calm Calm - N/A   Clear
3:56 AM 43.0 °F - 37.0 °F 80% 30.17 in 10.0 mi Calm Calm - N/A   Clear
4:56 AM 43.0 °F - 37.0 °F 80% 30.17 in 10.0 mi Calm Calm - N/A   Clear
5:56 AM 43.0 °F 41.3 °F 37.9 °F 82% 30.17 in 10.0 mi West 3.5 mph - N/A   Clear
6:56 AM 43.0 °F - 37.9 °F 82% 30.18 in 10.0 mi Calm Calm - N/A   Clear
7:56 AM 51.1 °F - 45.0 °F 80% 30.18 in 10.0 mi SW 4.6 mph - N/A   Clear
8:56 AM 54.0 °F - 46.9 °F 77% 30.19 in 10.0 mi SW 8.1 mph - N/A   Clear
9:56 AM 55.0 °F - 48.0 °F 77% 30.19 in 10.0 mi South 10.4 mph - N/A   Clear
10:56 AM 57.9 °F - 48.9 °F 72% 30.17 in 10.0 mi South 9.2 mph - N/A   Clear
11:56 AM 60.1 °F - 50.0 °F 69% 30.13 in 10.0 mi SSE 6.9 mph - N/A   Clear
12:56 PM 73.0 °F - 46.9 °F 39% 30.10 in 10.0 mi WSW 15.0 mph 23.0 mph N/A   Clear
1:56 PM 66.0 °F - 48.9 °F 54% 30.08 in 10.0 mi South 6.9 mph - N/A   Clear
2:56 PM 73.0 °F - 46.9 °F 39% 30.07 in 10.0 mi SW 15.0 mph - N/A   Clear
3:56 PM 66.0 °F - 48.0 °F 52% 30.08 in 10.0 mi SSW 11.5 mph - N/A   Clear
4:56 PM 63.0 °F - 48.9 °F 60% 30.09 in 10.0 mi SSW 11.5 mph - N/A   Clear
5:56 PM 59.0 °F - 48.9 °F 69% 30.09 in 10.0 mi SSW 8.1 mph - N/A   Partly Cloudy
6:56 PM 59.0 °F - 48.0 °F 67% 30.09 in 10.0 mi SSW 10.4 mph - N/A   Clear
7:56 PM 60.1 °F - 48.9 °F 67% 30.10 in 10.0 mi SSW 11.5 mph - N/A   Clear
8:56 PM 57.0 °F - 48.9 °F 74% 30.10 in 10.0 mi SW 9.2 mph - N/A   Clear
9:56 PM 57.9 °F - 48.9 °F 72% 30.10 in 10.0 mi SSW 12.7 mph - N/A   Clear
10:56 PM 57.0 °F - 48.9 °F 74% 30.10 in 10.0 mi SW 9.2 mph - N/A   Clear
11:56 PM 57.0 °F - 50.0 °F 77% 30.10 in 10.0 mi SSW 10.4 mph - N/A   Scattered Clouds